Showing default

OPS 3367 A, 734

Orbit data source: Space-Track

OPS 3367 A, 734 is a payload satellite in SSO that was launched on Sun, 19 Jan 1964 UTC via a THOR SLV-2 AGENA D launch vehicle from the Air Force Western Test Range (AFWTR). Payload-class satellites include a variety of spacecraft equipped with specific instruments for various scientific and technological missions. These include communications satellites like Starlink; space stations such as the ISS; scientific satellites like the Hubble; Earth observation satellites from companies like Planet Labs, Umbra, and HawkEye 360; GPS; miniature CubeSats for education and research; and military/defense satellites.

Loading next visibility...
Identifier
734, 1964-002B
Orbit
SSO
Last TLE update
19 hours ago
Origin
Manufacturer
RCA/East Windsor
Mission
Defense Weather
Bus & Motor
P35, Unknown motor
Mass
50 kg wet, 50 kg dry
Launch date (UTC)
1964-01-19 (61 years ago)
Launch vehicle
THOR SLV-2 AGENA D
Launch site
Air Force Western Test Range (AFWTR)
Object type
Payload
Rocket body
Debris
Shape & HBR
Cyl, 0.6 m
Radar Cross Section
0.377 m², Medium (>0.1 m² and < 1m²)

Expand to show TLE details & history

TLE from 19 hours ago
0 OPS 3367 A
1 00734U 64002B   25138.71984100  .00000141  00000-0  73705-4 0  9997
2 00734  98.9726  52.1241 0013410 250.9351 109.0378 14.29548850192406
Epoch: 2025-05-18T17:16Z
TLE epoch observation values (Epoch: 2025-05-18T17:16:34.262Z)
Latitude
Longitude
-83.66143°
Altitude
799.307 km
Speed
7.452 km/s
True Right ascension
03h 28m 29s
True Declination
0° 00' 00"
Sunlit
Object was in daylight at epoch
Visualization orbit readout
Latitude
77.62099°
Longitude
142.84238°
Altitude
814.65 km
Speed
7.448 km/s
Apparent Right ascension
09h 58m 59s
Apparent Declination
37° 49' 24"
Sunlit
Object is in daylight
Visualization observer readout
Local Sidereal Time
21:02:05
Azimuth
348.588° N
Elevation
-11.174°
Doppler factor
1
Orbital elements
Apogee altitude
800.011 km
Perigee altitude
780.785 km
Semi-major axis
7,168.535 km
Eccentricity
0.00134
Inclination
98.9726°
RAAN
52.1241°
Arg. of periapsis
250.9351°
True anomaly
Unknown
Mean anomaly
109.0378°
Eccentric anomaly
Unknown
Mean motion
3.576 °/min
Orbital period
100.67 mins
BSTAR
0.000073705
Loading maneuver chart data...
Loading SW <> Apogee altitude chart data...
Loading historical data...
Loading historical data...
Loading historical data...
Loading historical data...
Loading historical data...
Loading historical data...
Loading historical data...
Other satellites on launch #2 in the year 1964 (1964-01-19 UTC)

OPS 3367 A Visibility forecast

Observer location: undefined°, undefined°

Span
Click to sort rows by Start time (UTC) header in descending order
Start Az.
Max El. time (UTC)
Max El. Az.
Max El.
End time (UTC)
End Az.
7 mins2025-05-19 16:56:53.087Z106.922° ESE2025-05-19 16:59:53.087Z69.868° E19.249°2025-05-19 17:03:53.087Z18.402° NNE
8 mins2025-05-19 18:35:53.087Z190.777° SSW2025-05-19 18:39:53.087Z278.383° WNW36.896°2025-05-19 18:43:53.087Z333.109° NNW
8 mins2025-05-20 06:49:53.087Z27.884° NE2025-05-20 06:52:53.087Z82.192° E40.188°2025-05-20 06:57:53.087Z180.048° SSW
4 mins2025-05-20 08:30:53.087Z316.986° NNW2025-05-20 08:31:53.087Z303.184° NW16.851°2025-05-20 08:34:53.087Z264.08° W
|